Weather History for Key West NAF, FL

Change the Weather History Date:

Wednesday, November 14, 2012

  Actual Average Record
Temperature  
Mean Temperature 73 °F -  
Max Temperature 77 °F 79 °F 90 °F (2007)
Min Temperature 69 °F 70 °F 59 °F (1968)
Cooling Degree Days 8    
Growing Degree Days 23 (Base 50)    
Moisture  
Dew Point 67 °F    
Average Humidity 81    
Maximum Humidity 91    
Minimum Humidity 74    
Precipitation  
Precipitation 0.00 in - - ()
Sea Level Pressure  
Sea Level Pressure 30.07 in    
Wind  
Wind Speed 8 mph (NNE)    
Max Wind Speed 13 mph    
Max Gust Speed 18 mph    
Visibility 10 miles    
Events      
Averages and records for this station are not official NWS values.
T = Trace of Precipitation, MM = Missing Value Source: NWS Daily Summary

Daily Weather History Graph

Daily Weather History Graph

Search for Another Location

Airport:

Trip Planner

Search our weather history database for the weather conditions in past years. The results will help you decide how hot, cold, wet, or windy it might be!

Date:

Astronomy

Nov. 14, 2012 Rise Set
Actual Time 6:42 AM EST 5:39 PM EST
Civil Twilight 6:18 AM EST 6:03 PM EST
Nautical Twilight 5:50 AM EST 6:31 PM EST
Astronomical Twilight 5:23 AM EST 6:58 PM EST
Moon 7:24 AM EST (11/14) 6:33 PM EST (11/14)
Length of Visible Light 11h 45m
Length of Day
10h 57m
New Moon, 1% of the Moon is Illuminated
Nov 14
New Moon
Nov 20
First Quarter
Nov 28
Full
Dec 6
Last Quarter
Dec 13
New

Hourly Weather History & Observations

Time (EST) Temp. Dew Point Humidity Pressure Visibility Wind Dir Wind Speed Gust Speed Precip Events Conditions
12:53 AM - - N/A% 30.07 in 10.0 mi NNE 5.8 mph - N/A   Clear
1:53 AM - - N/A% 30.06 in 10.0 mi North 6.9 mph - N/A   Clear
2:53 AM - - N/A% 30.05 in 10.0 mi NNE 10.4 mph - N/A   Scattered Clouds
3:53 AM - - N/A% 30.04 in 10.0 mi NNE 10.4 mph - N/A   Clear
4:53 AM - - N/A% 30.05 in 10.0 mi NNE 8.1 mph - N/A   Clear
5:53 AM - - N/A% 30.07 in 10.0 mi North 5.8 mph - N/A   Clear
5:57 AM 69.8 °F 66.2 °F 88% 30.07 in 10.0 mi North 4.6 mph - N/A   Clear
6:53 AM 69.8 °F 66.9 °F 91% 30.07 in 10.0 mi NNE 10.4 mph - N/A   Mostly Cloudy
7:53 AM 69.8 °F 66.9 °F 91% 30.09 in 10.0 mi NNE 12.7 mph - N/A   Mostly Cloudy
8:53 AM 71.6 °F 66.9 °F 85% 30.10 in 10.0 mi NNE 11.5 mph 18.4 mph N/A   Scattered Clouds
9:53 AM 73.4 °F 66.9 °F 80% 30.12 in 10.0 mi NNE 10.4 mph - N/A   Scattered Clouds
10:53 AM 75.2 °F 66.9 °F 75% 30.10 in 10.0 mi NNE 11.5 mph 16.1 mph N/A   Scattered Clouds
11:53 AM 75.2 °F 66.9 °F 75% 30.09 in 10.0 mi NNE 10.4 mph 18.4 mph N/A   Scattered Clouds
12:53 PM 77.0 °F 68.0 °F 74% 30.08 in 10.0 mi North 11.5 mph - N/A   Scattered Clouds
1:53 PM 75.2 °F 66.9 °F 75% 30.05 in 10.0 mi North 9.2 mph - N/A   Mostly Cloudy
2:53 PM - - N/A% 30.05 in 10.0 mi North 9.2 mph - N/A   Clear
2:58 PM 75.2 °F 68.0 °F 78% 30.05 in 10.0 mi NNE 10.4 mph - N/A   Mostly Cloudy
3:53 PM 75.2 °F 68.0 °F 78% 30.04 in 10.0 mi NNE 9.2 mph - N/A   Mostly Cloudy
4:53 PM 75.2 °F 68.0 °F 78% 30.04 in 10.0 mi NNE 8.1 mph - N/A   Mostly Cloudy
5:53 PM 73.4 °F 68.0 °F 83% 30.04 in 10.0 mi NNE 9.2 mph - N/A   Mostly Cloudy
6:53 PM 73.4 °F 66.9 °F 80% 30.07 in 10.0 mi ENE 5.8 mph - N/A   Mostly Cloudy
7:53 PM 73.4 °F 66.2 °F 78% 30.09 in 10.0 mi NNE 5.8 mph - N/A   Mostly Cloudy
8:53 PM 73.4 °F 66.9 °F 80% 30.09 in 10.0 mi NNE 8.1 mph - N/A   Mostly Cloudy
9:53 PM 73.4 °F 66.9 °F 80% 30.10 in 10.0 mi North 6.9 mph - N/A   Mostly Cloudy
10:53 PM - - N/A% 30.09 in 10.0 mi North 6.9 mph - N/A   Clear
11:53 PM - - N/A% 30.08 in 10.0 mi North 6.9 mph - N/A   Clear